Location: Seattle
(47.6060°N, 122.3310°W)
Time: 19:52:34
(UTC-07:00)

ISS - Visible Passes

Search period start: 27 May 2017 00:00
Search period end: 06 June 2017 00:00
Orbit: 402 x 408 km, 51.6° (Epoch: 28 May)

Date Brightness Start Highest point End Pass type
(mag) Time Alt. Az. Time Alt. Az. Time Alt. Az.
27 May -2.8 01:15:52 10° WNW 01:19:05 48° NNE 01:22:17 10° E visible
27 May -3.7 02:52:26 10° WNW 02:55:22 48° SW 02:55:22 48° SW visible
27 May -2.8 22:46:50 10° W 22:50:04 49° NNW 22:53:18 10° ENE visible
28 May -2.5 00:23:47 10° WNW 00:26:57 41° N 00:30:06 10° E visible
28 May -3.2 02:00:21 10° WNW 02:02:44 45° WNW 02:02:44 45° WNW visible
28 May -3.3 21:54:40 10° WSW 21:57:57 65° NNW 22:01:14 10° ENE visible
28 May -2.4 23:31:38 10° WNW 23:34:46 39° N 23:37:54 10° ENE visible
29 May -3.6 01:08:17 10° WNW 01:11:36 70° NNE 01:11:38 70° NNE visible
29 May -2.4 22:39:27 10° WNW 22:42:35 40° N 22:45:45 10° ENE visible
30 May -3.0 00:16:14 10° WNW 00:19:28 52° NNE 00:20:51 29° ENE visible
30 May -1.4 01:52:48 10° WNW 01:53:28 15° W 01:53:28 15° W visible
30 May -2.6 21:47:13 10° W 21:50:25 46° NNW 21:53:37 10° ENE visible
30 May -2.6 23:24:08 10° WNW 23:27:18 43° N 23:30:13 12° E visible
31 May -2.8 01:00:40 10° WNW 01:02:50 37° W 01:02:50 37° W visible
31 May -2.4 22:31:58 10° WNW 22:35:06 39° N 22:38:14 10° ENE visible
01 Jun -3.8 00:08:34 10° WNW 00:11:52 80° NNE 00:12:17 65° E visible
01 Jun -2.4 21:39:44 10° WNW 21:42:53 39° N 21:46:01 10° ENE visible
01 Jun -3.3 23:16:28 10° WNW 23:19:44 57° NNE 23:21:46 21° E visible
02 Jun -1.8 00:53:06 10° WNW 00:54:24 20° W 00:54:24 20° W visible
02 Jun -2.8 22:24:20 10° WNW 22:27:33 45° NNE 22:30:44 10° E visible
03 Jun -3.6 00:00:53 10° WNW 00:03:55 55° SW 00:03:55 55° SW visible
03 Jun -3.9 23:08:43 10° WNW 23:12:02 88° SSW 23:13:28 31° ESE visible
04 Jun -1.1 00:45:53 10° W 00:46:06 11° W 00:46:06 11° W visible
04 Jun -3.5 22:16:35 10° WNW 22:19:53 64° NNE 22:23:02 11° ESE visible
04 Jun -2.5 23:53:19 10° W 23:55:41 27° SW 23:55:41 27° SW visible
05 Jun -3.4 23:00:59 10° WNW 23:04:11 47° SSW 23:05:17 32° SSE visible
